GLO1363 SBUL-SBSP

Flight info

Callsign GLO1363
Flight time 1h 0m
Altitude 33000
Route KOMLU DCT DEVIR UZ2 ENTIT
Aircraft B738/M-SDFGIKLORWXY/LB1

Departure

Time 2026-04-26 18:12
Airport Ten. Cel. Aviador César Bombonato Airport (SBUL)

Arrival

Time 2026-04-26 19:12
Airport Congonhas–Deputado Freitas Nobre Airport (SBSP)
Time Latitude Longitude Altitude Speed Heading
2026-04-26 17:50 -18.88952 -48.23020 3099 ft 0 kts 251°
2026-04-26 18:03 -18.88951 -48.23016 3099 ft 3 kts 251°
2026-04-26 18:03 -18.88943 -48.22995 3099 ft 4 kts 245°
2026-04-26 18:03 -18.88929 -48.22971 3099 ft 4 kts 226°
2026-04-26 18:03 -18.88909 -48.22954 3100 ft 4 kts 205°
2026-04-26 18:04 -18.88899 -48.22950 3100 ft 0 kts 202°
2026-04-26 18:07 -18.88904 -48.22952 3100 ft 2 kts 202°
2026-04-26 18:07 -18.88941 -48.22968 3100 ft 9 kts 202°
2026-04-26 18:07 -18.88963 -48.22977 3099 ft 7 kts 202°
2026-04-26 18:08 -18.89012 -48.22996 3099 ft 3 kts 179°
2026-04-26 18:08 -18.89019 -48.22993 3099 ft 0 kts 151°
2026-04-26 18:09 -18.89026 -48.22988 3099 ft 3 kts 142°
2026-04-26 18:09 -18.89040 -48.22960 3101 ft 5 kts 113°
2026-04-26 18:09 -18.89054 -48.22928 3102 ft 6 kts 118°
2026-04-26 18:09 -18.89098 -48.22917 3102 ft 10 kts 197°
2026-04-26 18:10 -18.89177 -48.22916 3099 ft 13 kts 172°
2026-04-26 18:10 -18.89221 -48.22956 3097 ft 10 kts 293°
2026-04-26 18:10 -18.89196 -48.22961 3098 ft 0 kts 20°
2026-04-26 18:11 -18.89190 -48.22959 3098 ft 10 kts 20°
2026-04-26 18:11 -18.89032 -48.22892 3103 ft 64 kts 23°
2026-04-26 18:11 -18.88383 -48.22604 3110 ft 136 kts 23°
2026-04-26 18:11 -18.87345 -48.22145 3348 ft 173 kts 24°
2026-04-26 18:12 -18.86248 -48.21645 4323 ft 173 kts 24°
2026-04-26 18:12 -18.85132 -48.21131 5259 ft 172 kts 23°
2026-04-26 18:12 -18.84015 -48.20643 5821 ft 174 kts 22°
2026-04-26 18:12 -18.82886 -48.20133 6203 ft 179 kts 23°
2026-04-26 18:13 -18.81907 -48.19314 6606 ft 186 kts 60°
2026-04-26 18:13 -18.81760 -48.17972 7328 ft 189 kts 103°
2026-04-26 18:13 -18.82490 -48.16768 7783 ft 211 kts 143°
2026-04-26 18:13 -18.83361 -48.16247 7967 ft 224 kts 153°
2026-04-26 18:14 -18.85100 -48.14777 8152 ft 258 kts 124°
2026-04-26 18:14 -18.85703 -48.12934 8317 ft 279 kts 97°
2026-04-26 18:14 -18.85997 -48.10837 8800 ft 294 kts 100°
2026-04-26 18:14 -18.86484 -48.08731 9602 ft 297 kts 105°
2026-04-26 18:15 -18.87088 -48.06633 10404 ft 301 kts 107°
2026-04-26 18:15 -18.87754 -48.04475 10849 ft 318 kts 108°
2026-04-26 18:15 -18.88470 -48.02204 11261 ft 332 kts 109°
2026-04-26 18:15 -18.89608 -48.00063 11808 ft 341 kts 133°
2026-04-26 18:16 -18.91528 -47.98613 12539 ft 342 kts 152°
2026-04-26 18:16 -18.95780 -47.96274 13951 ft 348 kts 152°
2026-04-26 18:16 -18.97899 -47.95086 14546 ft 352 kts 151°
2026-04-26 18:17 -19.00082 -47.93852 15088 ft 359 kts 151°
2026-04-26 18:17 -19.02296 -47.92593 15679 ft 363 kts 152°
2026-04-26 18:17 -19.04533 -47.91318 16243 ft 369 kts 152°
2026-04-26 18:17 -19.06798 -47.90028 16845 ft 371 kts 152°
2026-04-26 18:18 -19.09077 -47.88728 17463 ft 373 kts 153°
2026-04-26 18:18 -19.11370 -47.87419 18093 ft 375 kts 153°
2026-04-26 18:18 -19.13676 -47.86102 18658 ft 378 kts 153°
2026-04-26 18:18 -19.15999 -47.84777 19193 ft 381 kts 153°
2026-04-26 18:19 -19.18347 -47.83436 19649 ft 386 kts 153°
2026-04-26 18:19 -19.20719 -47.82080 20112 ft 390 kts 153°
2026-04-26 18:19 -19.23117 -47.80709 20574 ft 393 kts 153°
2026-04-26 18:19 -19.25535 -47.79325 21041 ft 396 kts 153°
2026-04-26 18:20 -19.27973 -47.77930 21492 ft 399 kts 153°
2026-04-26 18:20 -19.30425 -47.76526 21933 ft 402 kts 153°
2026-04-26 18:20 -19.32896 -47.75110 22352 ft 405 kts 153°
2026-04-26 18:20 -19.34539 -47.74168 22623 ft 407 kts 153°
2026-04-26 18:21 -19.37889 -47.72248 23139 ft 411 kts 153°
2026-04-26 18:21 -19.40414 -47.70801 23509 ft 414 kts 153°
2026-04-26 18:21 -19.42956 -47.69344 23867 ft 417 kts 154°
2026-04-26 18:21 -19.45482 -47.67894 24205 ft 419 kts 154°
2026-04-26 18:22 -19.48091 -47.66396 24544 ft 422 kts 154°
2026-04-26 18:22 -19.50679 -47.64911 24873 ft 425 kts 154°
2026-04-26 18:22 -19.53250 -47.63434 25190 ft 427 kts 153°
2026-04-26 18:22 -19.55868 -47.61930 25515 ft 430 kts 153°
2026-04-26 18:23 -19.58505 -47.60414 25836 ft 432 kts 153°
2026-04-26 18:23 -19.61152 -47.58891 26174 ft 434 kts 153°
2026-04-26 18:23 -19.63811 -47.57360 26514 ft 436 kts 153°
2026-04-26 18:23 -19.66481 -47.55825 26825 ft 438 kts 153°
2026-04-26 18:24 -19.69169 -47.54276 27123 ft 440 kts 153°
2026-04-26 18:24 -19.71866 -47.52723 27409 ft 442 kts 153°
2026-04-26 18:24 -19.74579 -47.51160 27699 ft 445 kts 153°
2026-04-26 18:24 -19.77304 -47.49595 27975 ft 447 kts 153°
2026-04-26 18:25 -19.80049 -47.48030 28259 ft 449 kts 153°
2026-04-26 18:25 -19.82805 -47.46461 28539 ft 451 kts 153°
2026-04-26 18:25 -19.85573 -47.44888 28807 ft 452 kts 153°
2026-04-26 18:25 -19.88355 -47.43305 29059 ft 454 kts 153°
2026-04-26 18:26 -19.91147 -47.41714 29331 ft 456 kts 153°
2026-04-26 18:26 -19.93935 -47.40124 29733 ft 454 kts 153°
2026-04-26 18:26 -19.96709 -47.38541 30167 ft 451 kts 153°
2026-04-26 18:26 -19.99468 -47.36964 30519 ft 451 kts 153°
2026-04-26 18:27 -20.02232 -47.35385 30820 ft 452 kts 153°
2026-04-26 18:27 -20.05004 -47.33801 31073 ft 454 kts 153°
2026-04-26 18:27 -20.07787 -47.32208 31371 ft 454 kts 153°
2026-04-26 18:27 -20.10564 -47.30619 31732 ft 452 kts 153°
2026-04-26 18:28 -20.13332 -47.29035 32084 ft 451 kts 153°
2026-04-26 18:28 -20.16098 -47.27451 32382 ft 451 kts 153°
2026-04-26 18:28 -20.18863 -47.25867 32663 ft 451 kts 153°
2026-04-26 18:28 -20.21629 -47.24282 32935 ft 451 kts 153°
2026-04-26 18:29 -20.24394 -47.22698 33047 ft 454 kts 153°
2026-04-26 18:29 -20.27182 -47.21099 33038 ft 455 kts 153°
2026-04-26 18:29 -20.32732 -47.17913 33035 ft 450 kts 153°
2026-04-26 18:30 -20.38227 -47.14755 33043 ft 448 kts 153°
2026-04-26 18:30 -20.43712 -47.11602 33030 ft 448 kts 153°
2026-04-26 18:31 -20.49199 -47.08448 33032 ft 448 kts 153°
2026-04-26 18:31 -20.54685 -47.05289 33021 ft 448 kts 153°
2026-04-26 18:32 -20.60144 -47.02142 33021 ft 449 kts 154°
2026-04-26 18:32 -20.65679 -46.98950 33020 ft 449 kts 153°
2026-04-26 18:33 -20.71181 -46.95773 33019 ft 450 kts 154°
2026-04-26 18:33 -20.76701 -46.92622 33008 ft 449 kts 157°
2026-04-26 18:34 -20.82599 -46.90800 33009 ft 443 kts 175°
2026-04-26 18:34 -20.88746 -46.89919 32999 ft 443 kts 175°
2026-04-26 18:35 -20.94856 -46.89014 32988 ft 443 kts 175°
2026-04-26 18:35 -21.00964 -46.88075 33007 ft 444 kts 175°
2026-04-26 18:36 -21.07036 -46.87127 32997 ft 444 kts 175°
2026-04-26 18:36 -21.13196 -46.86157 32999 ft 444 kts 175°
2026-04-26 18:37 -21.19320 -46.85195 32970 ft 445 kts 175°
2026-04-26 18:37 -21.25404 -46.84236 32983 ft 445 kts 175°
2026-04-26 18:38 -21.31532 -46.83273 32974 ft 444 kts 175°
2026-04-26 18:38 -21.37643 -46.82313 32994 ft 443 kts 175°
2026-04-26 18:39 -21.43746 -46.81353 33000 ft 443 kts 175°
2026-04-26 18:39 -21.49845 -46.80393 32995 ft 442 kts 175°
2026-04-26 18:40 -21.55942 -46.79431 32987 ft 443 kts 175°
2026-04-26 18:40 -21.62036 -46.78468 32999 ft 443 kts 175°
2026-04-26 18:41 -21.68134 -46.77505 32986 ft 443 kts 175°
2026-04-26 18:41 -21.74231 -46.76541 32987 ft 442 kts 175°
2026-04-26 18:42 -21.80308 -46.75578 32982 ft 438 kts 175°
2026-04-26 18:42 -21.86286 -46.74630 32989 ft 432 kts 175°
2026-04-26 18:43 -21.92262 -46.73687 32706 ft 436 kts 175°
2026-04-26 18:43 -21.95246 -46.73213 32399 ft 429 kts 175°
2026-04-26 18:43 -21.98180 -46.72745 31991 ft 424 kts 175°
2026-04-26 18:44 -22.01081 -46.72281 31601 ft 418 kts 175°
2026-04-26 18:44 -22.03938 -46.71825 31212 ft 413 kts 176°
2026-04-26 18:44 -22.06763 -46.71376 30827 ft 408 kts 176°
2026-04-26 18:44 -22.09518 -46.70939 30442 ft 403 kts 176°
2026-04-26 18:45 -22.12278 -46.70500 30066 ft 399 kts 176°
2026-04-26 18:45 -22.15008 -46.70067 29683 ft 394 kts 176°
2026-04-26 18:45 -22.17703 -46.69638 29302 ft 389 kts 176°
2026-04-26 18:45 -22.20369 -46.69214 28912 ft 384 kts 177°
2026-04-26 18:46 -22.22998 -46.68796 28529 ft 380 kts 176°
2026-04-26 18:46 -22.25605 -46.68381 28144 ft 377 kts 177°
2026-04-26 18:46 -22.28195 -46.67969 27772 ft 375 kts 177°
2026-04-26 18:46 -22.30795 -46.67558 27412 ft 382 kts 176°
2026-04-26 18:47 -22.33470 -46.67135 27036 ft 394 kts 176°
2026-04-26 18:47 -22.36189 -46.66701 26615 ft 394 kts 176°
2026-04-26 18:47 -22.38888 -46.66299 26206 ft 387 kts 181°
2026-04-26 18:47 -22.41430 -46.66597 25812 ft 367 kts 204°
2026-04-26 18:48 -22.43675 -46.67753 25467 ft 351 kts 220°
2026-04-26 18:48 -22.45505 -46.69436 25107 ft 341 kts 229°
2026-04-26 18:48 -22.47201 -46.71216 24710 ft 337 kts 228°
2026-04-26 18:48 -22.48884 -46.72958 24359 ft 333 kts 228°
2026-04-26 18:49 -22.50560 -46.74671 23985 ft 330 kts 228°
2026-04-26 18:49 -22.52210 -46.76338 23627 ft 329 kts 227°
2026-04-26 18:49 -22.53877 -46.78019 23271 ft 327 kts 227°
2026-04-26 18:49 -22.55543 -46.79700 22964 ft 330 kts 227°
2026-04-26 18:50 -22.57247 -46.81424 22813 ft 340 kts 227°
2026-04-26 18:50 -22.58989 -46.83189 22629 ft 346 kts 227°
2026-04-26 18:50 -22.60744 -46.84963 22441 ft 344 kts 227°
2026-04-26 18:50 -22.62483 -46.86720 22269 ft 340 kts 227°
2026-04-26 18:51 -22.64205 -46.88463 22066 ft 338 kts 227°
2026-04-26 18:51 -22.65917 -46.90196 21909 ft 336 kts 227°
2026-04-26 18:51 -22.67626 -46.91911 21737 ft 335 kts 225°
2026-04-26 18:51 -22.69503 -46.93419 21569 ft 337 kts 217°
2026-04-26 18:52 -22.71502 -46.94759 21400 ft 338 kts 215°
2026-04-26 18:52 -22.73526 -46.96061 21227 ft 338 kts 215°
2026-04-26 18:52 -22.75540 -46.97370 21058 ft 337 kts 216°
2026-04-26 18:52 -22.77542 -46.98696 20885 ft 337 kts 216°
2026-04-26 18:53 -22.79532 -47.00035 20716 ft 337 kts 216°
2026-04-26 18:53 -22.81515 -47.01381 20541 ft 336 kts 217°
2026-04-26 18:53 -22.83495 -47.02730 20375 ft 336 kts 217°
2026-04-26 18:53 -22.85471 -47.04080 20204 ft 335 kts 217°
2026-04-26 18:54 -22.87440 -47.05425 20036 ft 335 kts 216°
2026-04-26 18:54 -22.89419 -47.06774 19676 ft 338 kts 216°
2026-04-26 18:54 -22.91412 -47.08123 19268 ft 338 kts 216°
2026-04-26 18:54 -22.93517 -47.09220 18981 ft 337 kts 198°
2026-04-26 18:55 -22.95858 -47.09285 18649 ft 341 kts 174°
2026-04-26 18:55 -22.98136 -47.08530 18240 ft 344 kts 162°
2026-04-26 18:55 -23.00343 -47.07533 17801 ft 343 kts 161°
2026-04-26 18:55 -23.02543 -47.06543 17378 ft 341 kts 161°
2026-04-26 18:56 -23.03994 -47.05894 17101 ft 340 kts 161°
2026-04-26 18:56 -23.06177 -47.04924 16687 ft 338 kts 161°
2026-04-26 18:56 -23.08346 -47.03964 16276 ft 336 kts 161°
2026-04-26 18:56 -23.10501 -47.03015 15882 ft 333 kts 161°
2026-04-26 18:57 -23.12644 -47.02074 15455 ft 332 kts 161°
2026-04-26 18:57 -23.14061 -47.01453 15174 ft 331 kts 161°
2026-04-26 18:57 -23.16905 -47.00207 14660 ft 328 kts 161°
2026-04-26 18:57 -23.19012 -46.99283 14291 ft 325 kts 161°
2026-04-26 18:58 -23.21105 -46.98365 13863 ft 324 kts 161°
2026-04-26 18:58 -23.23195 -46.97449 13448 ft 323 kts 160°
2026-04-26 18:58 -23.25270 -46.96540 13091 ft 320 kts 160°
2026-04-26 18:58 -23.27321 -46.95640 12819 ft 316 kts 160°
2026-04-26 18:59 -23.29353 -46.94750 12528 ft 315 kts 160°
2026-04-26 18:59 -23.31391 -46.93856 12262 ft 315 kts 160°
2026-04-26 18:59 -23.33421 -46.92964 12003 ft 315 kts 160°
2026-04-26 18:59 -23.35452 -46.92071 11752 ft 315 kts 160°
2026-04-26 19:00 -23.37463 -46.91187 11464 ft 317 kts 160°
2026-04-26 19:00 -23.39507 -46.90289 11203 ft 317 kts 160°
2026-04-26 19:00 -23.41554 -46.89389 10941 ft 318 kts 160°
2026-04-26 19:00 -23.43589 -46.88493 10689 ft 313 kts 160°
2026-04-26 19:01 -23.45587 -46.87611 10410 ft 308 kts 160°
2026-04-26 19:01 -23.47561 -46.86745 10149 ft 302 kts 160°
2026-04-26 19:01 -23.49487 -46.85898 9874 ft 296 kts 160°
2026-04-26 19:01 -23.51384 -46.85056 9652 ft 294 kts 160°
2026-04-26 19:02 -23.53283 -46.84222 9401 ft 295 kts 160°
2026-04-26 19:02 -23.55191 -46.83385 9149 ft 295 kts 160°
2026-04-26 19:02 -23.57084 -46.82514 9044 ft 297 kts 155°
2026-04-26 19:02 -23.58269 -46.81764 9026 ft 298 kts 149°
2026-04-26 19:03 -23.60567 -46.80085 9005 ft 297 kts 148°
2026-04-26 19:03 -23.62288 -46.78843 9016 ft 296 kts 148°
2026-04-26 19:03 -23.64019 -46.77619 9002 ft 296 kts 149°
2026-04-26 19:03 -23.65762 -46.76403 8832 ft 299 kts 149°
2026-04-26 19:04 -23.67523 -46.75181 8594 ft 301 kts 149°
2026-04-26 19:04 -23.69289 -46.73958 8356 ft 300 kts 149°
2026-04-26 19:04 -23.71034 -46.72747 8107 ft 294 kts 149°
2026-04-26 19:04 -23.72742 -46.71564 7893 ft 289 kts 149°
2026-04-26 19:05 -23.76140 -46.69205 7445 ft 291 kts 149°
2026-04-26 19:05 -23.77851 -46.68018 7227 ft 291 kts 149°
2026-04-26 19:05 -23.79565 -46.66826 6986 ft 293 kts 149°
2026-04-26 19:06 -23.81276 -46.65633 6736 ft 290 kts 149°
2026-04-26 19:06 -23.82815 -46.64240 6459 ft 288 kts 127°
2026-04-26 19:06 -23.83550 -46.62273 6314 ft 277 kts 96°
2026-04-26 19:06 -23.83419 -46.60229 6103 ft 266 kts 72°
2026-04-26 19:07 -23.82677 -46.58437 5900 ft 255 kts 53°
2026-04-26 19:07 -23.81655 -46.56940 5753 ft 243 kts 48°
2026-04-26 19:07 -23.80546 -46.55615 5517 ft 230 kts 32°
2026-04-26 19:07 -23.79129 -46.55121 5334 ft 207 kts 351°
2026-04-26 19:08 -23.77811 -46.55567 5230 ft 196 kts 334°
2026-04-26 19:08 -23.76565 -46.56199 5075 ft 198 kts 332°
2026-04-26 19:08 -23.75370 -46.56858 4932 ft 187 kts 329°
2026-04-26 19:08 -23.74279 -46.57571 4769 ft 180 kts 326°
2026-04-26 19:09 -23.73248 -46.58289 4617 ft 171 kts 326°
2026-04-26 19:09 -23.72253 -46.58980 4492 ft 168 kts 326°
2026-04-26 19:09 -23.71262 -46.59670 4397 ft 171 kts 326°
2026-04-26 19:09 -23.70245 -46.60379 4221 ft 176 kts 327°
2026-04-26 19:10 -23.69220 -46.61091 3988 ft 172 kts 328°
2026-04-26 19:10 -23.68251 -46.61763 3796 ft 157 kts 328°
2026-04-26 19:10 -23.67336 -46.62401 3576 ft 158 kts 328°
2026-04-26 19:10 -23.66475 -46.63010 3344 ft 149 kts 327°
2026-04-26 19:11 -23.65614 -46.63611 3131 ft 145 kts 328°
2026-04-26 19:11 -23.64766 -46.64198 2958 ft 144 kts 327°
2026-04-26 19:11 -23.63921 -46.64782 2765 ft 144 kts 327°
2026-04-26 19:11 -23.63109 -46.65344 2611 ft 130 kts 328°
2026-04-26 19:12 -23.62616 -46.65684 2604 ft 36 kts 328°
2026-04-26 19:12 -23.62406 -46.65829 2601 ft 34 kts 328°
2026-04-26 19:12 -23.62223 -46.65956 2598 ft 16 kts 326°
2026-04-26 19:12 -23.62218 -46.66036 2598 ft 13 kts 211°
2026-04-26 19:13 -23.62294 -46.66012 2599 ft 12 kts 147°
2026-04-26 19:13 -23.62361 -46.65965 2599 ft 11 kts 147°
2026-04-26 19:13 -23.62428 -46.65919 2600 ft 11 kts 147°
2026-04-26 19:13 -23.62469 -46.65900 2600 ft 6 kts 199°
2026-04-26 19:14 -23.62494 -46.65938 2600 ft 6 kts 237°
2026-04-26 19:14 -23.62503 -46.65953 2599 ft 2 kts 237°
2026-04-26 19:14 -23.62509 -46.65963 2599 ft 0 kts 237°
2026-04-26 19:14 -23.62510 -46.65964 2599 ft 0 kts 237°